Weather History for KMDH - May, 2012

Change the Weather History Date:

Monday, May 7, 2012

  Actual Average Record
Temperature  
Mean Temperature 70 °F -  
Max Temperature 77 °F 73 °F 92 °F (1934)
Min Temperature 64 °F 51 °F 33 °F (1992)
Cooling Degree Days 6    
Growing Degree Days 20 (Base 50)    
Moisture  
Dew Point 64 °F    
Average Humidity 83    
Maximum Humidity 94    
Minimum Humidity 64    
Precipitation  
Precipitation 0.01 in - - ()
Sea Level Pressure  
Sea Level Pressure 29.86 in    
Wind  
Wind Speed 5 mph (WNW)    
Max Wind Speed 10 mph    
Max Gust Speed 20 mph    
Visibility 9 miles    
Events Rain    
Averages and records for this station are not official NWS values.
T = Trace of Precipitation, MM = Missing Value Source: NWS Daily Summary

Daily Weather History Graph

Daily Weather History Graph

Search for Another Location

Airport or City:

Trip Planner

Search our weather history database for the weather conditions in past years. The results will help you decide how hot, cold, wet, or windy it might be!

Date:

Astronomy

May. 07, 2012 Rise Set
Actual Time 5:54 AM CDT 7:53 PM CDT
Civil Twilight 5:25 AM CDT 8:22 PM CDT
Nautical Twilight 4:50 AM CDT 8:57 PM CDT
Astronomical Twilight 4:12 AM CDT 9:35 PM CDT
Moon 10:03 PM CDT (5/7) 7:01 AM CDT (5/7)
Length of Visible Light 14h 56m
Length of Day
13h 59m
Waning Gibbous, 96% of the Moon is Illuminated
May 7
Waning Gibbous
May 12
Last Quarter
May 20
New
May 28
First Quarter
Jun 4
Full

Hourly Weather History & Observations

Time (CDT) Temp. Dew Point Humidity Pressure Visibility Wind Dir Wind Speed Gust Speed Precip Events Conditions
12:52 AM 70.0 °F 62.1 °F 76% 29.83 in 10.0 mi SSE 6.9 mph - N/A   Clear
1:52 AM 68.0 °F 61.0 °F 78% 29.81 in 10.0 mi SE 5.8 mph - N/A   Clear
2:52 AM 66.9 °F 61.0 °F 81% 29.80 in 10.0 mi WNW 3.5 mph - N/A   Clear
3:52 AM 66.0 °F 61.0 °F 84% 29.83 in 10.0 mi Calm Calm - N/A   Clear
4:52 AM 68.0 °F 62.1 °F 81% 29.85 in 10.0 mi Calm Calm - N/A   Mostly Cloudy
5:52 AM 66.9 °F 62.1 °F 84% 29.83 in 10.0 mi Calm Calm - N/A   Scattered Clouds
6:52 AM 66.9 °F 63.0 °F 87% 29.86 in 10.0 mi Calm Calm - N/A   Mostly Cloudy
7:52 AM 71.1 °F 64.9 °F 81% 29.88 in 10.0 mi West 4.6 mph - N/A   Mostly Cloudy
8:52 AM 72.0 °F 64.0 °F 76% 29.91 in 10.0 mi WSW 8.1 mph - N/A   Mostly Cloudy
9:52 AM 72.0 °F 64.9 °F 78% 29.91 in 10.0 mi West 4.6 mph - N/A   Overcast
9:59 AM 71.6 °F 64.4 °F 78% 29.91 in 10.0 mi WSW 9.2 mph - N/A   Mostly Cloudy
10:18 AM 71.6 °F 64.4 °F 78% 29.91 in 10.0 mi Calm Calm - N/A   Mostly Cloudy
10:52 AM 73.0 °F 64.0 °F 73% 29.89 in 10.0 mi Calm Calm - N/A   Clear
11:52 AM 75.0 °F 64.0 °F 69% 29.87 in 10.0 mi ENE 6.9 mph - N/A   Overcast
12:52 PM 75.0 °F 64.0 °F 69% 29.88 in 10.0 mi SW 5.8 mph - N/A   Overcast
1:52 PM 77.0 °F 64.0 °F 64% 29.87 in 10.0 mi West 6.9 mph - N/A   Overcast
2:52 PM 75.9 °F 63.0 °F 64% 29.85 in 10.0 mi West 6.9 mph - N/A   Overcast
3:52 PM 69.1 °F 64.9 °F 87% 29.85 in 7.0 mi WNW 10.4 mph - 0.00 in Rain Light Rain
3:59 PM 68.0 °F 64.4 °F 88% 29.86 in 7.0 mi WNW 8.1 mph - 0.00 in Rain Light Rain
4:12 PM 68.0 °F 66.2 °F 94% 29.86 in 9.0 mi WNW 6.9 mph - 0.01 in Rain Light Rain
4:52 PM 69.1 °F 66.0 °F 90% 29.85 in 10.0 mi West 4.6 mph - 0.01 in Rain Light Rain
5:52 PM 69.1 °F 66.0 °F 90% 29.84 in 10.0 mi West 8.1 mph - 0.00 in   Overcast
6:20 PM 68.0 °F 66.2 °F 94% 29.85 in 1.8 mi WNW 10.4 mph - 0.04 in Rain Heavy Rain
6:31 PM 68.0 °F 64.4 °F 88% 29.85 in 3.0 mi WNW 8.1 mph - 0.06 in Rain Light Rain
6:43 PM 68.0 °F 64.4 °F 88% 29.85 in 10.0 mi NW 10.4 mph 19.6 mph 0.06 in   Overcast
7:11 PM 66.2 °F 64.4 °F 94% 29.86 in 10.0 mi NNW 6.9 mph - 0.00 in   Overcast
7:52 PM 66.9 °F 64.9 °F 93% 29.85 in 10.0 mi NW 5.8 mph - 0.00 in   Overcast
8:52 PM 66.9 °F 64.0 °F 90% 29.87 in 10.0 mi NW 6.9 mph - N/A   Overcast
9:52 PM 66.0 °F 63.0 °F 90% 29.89 in 10.0 mi NW 6.9 mph - N/A   Overcast
10:52 PM 64.9 °F 62.1 °F 90% 29.90 in 10.0 mi NNW 8.1 mph - N/A   Clear
11:52 PM 64.9 °F 62.1 °F 90% 29.90 in 10.0 mi NW 5.8 mph - N/A   Overcast